This is the latest recevied weather packets stored in our database for station/object KO4DYK. If no packets are shown the sender has not sent any weather packets the latest 10 day(s).
| Time | Temp. | Humidity | Pressure | Rain* | Wind** | Luminosity | Snow |
|---|---|---|---|---|---|---|---|
| 1778074627 | 11.67° C | 99% | 1017.2 hPa | 0 mm | - | 52 W/m² | - |
| 1778074323 | 11.67° C | 99% | 1017.2 hPa | 0 mm | - | 56 W/m² | - |
| 1778074021 | 11.67° C | 99% | 1017.2 hPa | 0 mm | - | 51 W/m² | - |
| 1778073717 | 11.67° C | 99% | 1017.2 hPa | 0 mm | - | 47 W/m² | - |
| 1778073415 | 11.67° C | 99% | 1017 hPa | 0 mm | - | 45 W/m² | - |
| 1778073111 | 11.67° C | 99% | 1016.6 hPa | 0 mm | - | 53 W/m² | - |
| 1778072808 | 11.67° C | 99% | 1016.4 hPa | 0 mm | - | 58 W/m² | - |
| 1778072505 | 11.67° C | 99% | 1016.5 hPa | 0 mm | - | 42 W/m² | - |
| 1778072204 | 11.11° C | 99% | 1016.2 hPa | 0 mm | - | 52 W/m² | - |
| 1778071901 | 11.11° C | 99% | 1016.1 hPa | 0 mm | - | 56 W/m² | - |
| 1778071599 | 11.11° C | 99% | 1016.1 hPa | 0 mm | - | 38 W/m² | - |
| 1778071296 | 11.11° C | 99% | 1016.2 hPa | 0 mm | - | 35 W/m² | - |
| 1778070994 | 11.11° C | 99% | 1016.2 hPa | 0 mm | - | 33 W/m² | - |
| 1778070692 | 11.11° C | 99% | 1015.9 hPa | 0 mm | - | 31 W/m² | - |
| 1778070389 | 11.11° C | 99% | 1015.6 hPa | 0 mm | - | 30 W/m² | - |
| 1778070086 | 11.11° C | 99% | 1015.7 hPa | 0 mm | - | 26 W/m² | - |
| 1778069784 | 11.11° C | 99% | 1015.7 hPa | 0 mm | - | 16 W/m² | - |
| 1778069480 | 11.11° C | 99% | 1015.5 hPa | 0 mm | - | 18 W/m² | - |
| 1778069178 | 11.11° C | 99% | 1015.6 hPa | 0 mm | - | 18 W/m² | - |
| 1778068875 | 11.11° C | 99% | 1015.1 hPa | 0 mm | - | 12 W/m² | - |
| 1778068574 | 11.11° C | 99% | 1014.9 hPa | 0 mm | - | 10 W/m² | - |
| 1778068272 | 11.11° C | 99% | 1014.7 hPa | 0 mm | - | 11 W/m² | - |
| 1778067968 | 11.11° C | 99% | 1015.3 hPa | 0 mm | - | 9 W/m² | - |
| 1778067667 | 11.11° C | 99% | 1015.1 hPa | 0 mm | - | 10 W/m² | - |
| 1778067364 | 11.11° C | 99% | 1014.8 hPa | 0 mm | - | 10 W/m² | - |
* Rain latest hour (hover to see other rain measurements)
** Current wind speed in m/s (hover to see current wind gust speed)